OAL458 LGNX-LGAV

Flight info

Callsign OAL458
Flight time 0h 32m
Altitude 12000
Route BIBEX
Aircraft AT76/M-SDFGIRY/S

Departure

Time 2026-05-04 09:56
Airport Naxos Island National Airport (LGNX)

Arrival

Time 2026-05-04 10:28
Airport Athens Eleftherios Venizelos International Airport (LGAV)
Time Latitude Longitude Altitude Speed Heading
2026-05-04 09:42 37.08095 25.36915 15 ft 0 kts 179°
2026-05-04 09:51 37.08088 25.36900 17 ft 0 kts 293°
2026-05-04 09:51 37.08092 25.36895 17 ft 6 kts 316°
2026-05-04 09:51 37.08109 25.36818 18 ft 6 kts 208°
2026-05-04 09:51 37.08012 25.36812 18 ft 16 kts 176°
2026-05-04 09:52 37.07868 25.36808 16 ft 25 kts 181°
2026-05-04 09:52 37.07749 25.36790 15 ft 10 kts 210°
2026-05-04 09:52 37.07724 25.36798 14 ft 2 kts 86°
2026-05-04 09:52 37.07731 25.36807 15 ft 0 kts 38°
2026-05-04 09:53 37.07733 25.36808 15 ft 2 kts 29°
2026-05-04 09:53 37.07749 25.36808 17 ft 0 kts
2026-05-04 09:55 37.07857 25.36809 17 ft 44 kts
2026-05-04 09:55 37.08358 25.36820 22 ft 96 kts
2026-05-04 09:55 37.09049 25.36826 428 ft 101 kts 356°
2026-05-04 09:56 37.09759 25.36909 948 ft 103 kts
2026-05-04 09:56 37.10470 25.37038 1504 ft 103 kts
2026-05-04 09:56 37.11176 25.37131 2072 ft 101 kts 347°
2026-05-04 09:56 37.11524 25.36396 2597 ft 117 kts 279°
2026-05-04 09:57 37.11504 25.35374 3108 ft 117 kts 284°
2026-05-04 09:57 37.11537 25.34363 3660 ft 116 kts 285°
2026-05-04 09:57 37.11591 25.33366 4203 ft 116 kts 286°
2026-05-04 09:57 37.11680 25.32367 4778 ft 115 kts 288°
2026-05-04 09:58 37.11799 25.31381 5341 ft 114 kts 289°
2026-05-04 09:58 37.11946 25.30407 5911 ft 113 kts 291°
2026-05-04 09:58 37.12109 25.29442 6457 ft 113 kts 292°
2026-05-04 10:00 37.13426 25.22475 9741 ft 122 kts 292°
2026-05-04 10:00 37.13628 25.21434 10212 ft 123 kts 293°
2026-05-04 10:02 37.15289 25.13104 12115 ft 190 kts 289°
2026-05-04 10:04 37.17798 24.99695 12118 ft 246 kts 288°
2026-05-04 10:04 37.18191 24.97592 12115 ft 248 kts 288°
2026-05-04 10:04 37.18587 24.95481 12118 ft 250 kts 288°
2026-05-04 10:04 37.18986 24.93357 12115 ft 251 kts 288°
2026-05-04 10:05 37.19384 24.91227 12113 ft 251 kts 288°
2026-05-04 10:05 37.19784 24.89087 12114 ft 252 kts 288°
2026-05-04 10:05 37.20185 24.86947 12118 ft 252 kts 288°
2026-05-04 10:05 37.20586 24.84804 12118 ft 253 kts 288°
2026-05-04 10:06 37.21167 24.82777 12112 ft 244 kts 305°
2026-05-04 10:06 37.21821 24.81637 12111 ft 243 kts 311°
2026-05-04 10:06 37.22922 24.80025 12109 ft 243 kts 314°
2026-05-04 10:08 37.29526 24.70194 12121 ft 246 kts 312°
2026-05-04 10:08 37.30610 24.68536 12123 ft 245 kts 312°
2026-05-04 10:08 37.31693 24.66881 12126 ft 245 kts 312°
2026-05-04 10:08 37.32775 24.65224 12129 ft 245 kts 312°
2026-05-04 10:09 37.33857 24.63569 12132 ft 245 kts 312°
2026-05-04 10:09 37.34941 24.61909 12132 ft 245 kts 312°
2026-05-04 10:09 37.36023 24.60251 12133 ft 245 kts 312°
2026-05-04 10:09 37.37090 24.58614 12136 ft 245 kts 312°
2026-05-04 10:10 37.38174 24.56953 12138 ft 245 kts 312°
2026-05-04 10:10 37.39254 24.55294 12145 ft 245 kts 312°
2026-05-04 10:10 37.40339 24.53630 12143 ft 245 kts 312°
2026-05-04 10:10 37.41419 24.51970 12148 ft 245 kts 312°
2026-05-04 10:11 37.42499 24.50306 12150 ft 245 kts 312°
2026-05-04 10:11 37.43578 24.48649 12151 ft 245 kts 312°
2026-05-04 10:11 37.44660 24.46984 12151 ft 245 kts 312°
2026-05-04 10:11 37.45739 24.45321 12156 ft 245 kts 312°
2026-05-04 10:12 37.46818 24.43659 12155 ft 245 kts 312°
2026-05-04 10:12 37.47928 24.41956 11767 ft 261 kts 312°
2026-05-04 10:12 37.49109 24.40134 11236 ft 272 kts 312°
2026-05-04 10:12 37.50293 24.38305 10920 ft 266 kts 312°
2026-05-04 10:13 37.51444 24.36523 10657 ft 259 kts 312°
2026-05-04 10:13 37.52579 24.34770 10277 ft 258 kts 312°
2026-05-04 10:13 37.53716 24.33018 9833 ft 259 kts 312°
2026-05-04 10:13 37.54853 24.31260 9404 ft 258 kts 311°
2026-05-04 10:14 37.55694 24.29273 8935 ft 265 kts 286°
2026-05-04 10:14 37.55758 24.26940 8537 ft 268 kts 271°
2026-05-04 10:16 37.54820 24.10881 6168 ft 256 kts 271°
2026-05-04 10:16 37.54720 24.08649 5855 ft 254 kts 271°
2026-05-04 10:16 37.54618 24.06428 5545 ft 254 kts 270°
2026-05-04 10:16 37.54518 24.04209 5253 ft 253 kts 271°
2026-05-04 10:17 37.54417 24.01995 4961 ft 253 kts 271°
2026-05-04 10:17 37.54330 23.99794 4655 ft 248 kts 274°
2026-05-04 10:19 37.61725 23.89426 3229 ft 228 kts 309°
2026-05-04 10:19 37.62657 23.87843 3200 ft 222 kts 309°
2026-05-04 10:19 37.63565 23.86306 3192 ft 217 kts 309°
2026-05-04 10:19 37.64479 23.84806 3197 ft 214 kts 310°
2026-05-04 10:20 37.65384 23.83333 3189 ft 211 kts 310°
2026-05-04 10:20 37.66281 23.81876 3179 ft 209 kts 310°
2026-05-04 10:20 37.67165 23.80444 3182 ft 204 kts 310°
2026-05-04 10:20 37.68026 23.79038 3176 ft 200 kts 310°
2026-05-04 10:21 37.68871 23.77663 3176 ft 195 kts 310°
2026-05-04 10:21 37.69690 23.76329 3181 ft 189 kts 311°
2026-05-04 10:21 37.70490 23.75034 3177 ft 184 kts 311°
2026-05-04 10:21 37.71363 23.73974 3173 ft 172 kts 339°
2026-05-04 10:22 37.73612 23.74558 3180 ft 168 kts 23°
2026-05-04 10:22 37.74636 23.75281 3186 ft 169 kts 29°
2026-05-04 10:22 37.75596 23.76106 3173 ft 169 kts 32°
2026-05-04 10:23 37.76534 23.76998 3177 ft 168 kts 34°
2026-05-04 10:23 37.77464 23.77893 3179 ft 166 kts 34°
2026-05-04 10:25 37.83482 23.83726 3067 ft 148 kts 34°
2026-05-04 10:25 37.84304 23.84496 2896 ft 147 kts 31°
2026-05-04 10:25 37.85123 23.85247 2625 ft 144 kts 34°
2026-05-04 10:25 37.85897 23.86013 2340 ft 141 kts 30°
2026-05-04 10:26 37.86712 23.86704 2050 ft 143 kts 32°
2026-05-04 10:26 37.87454 23.87476 1871 ft 133 kts 36°
2026-05-04 10:26 37.88154 23.88198 1617 ft 129 kts 31°
2026-05-04 10:26 37.88887 23.88828 1381 ft 125 kts 30°
2026-05-04 10:27 37.89582 23.89464 1071 ft 123 kts 32°
2026-05-04 10:27 37.90261 23.90083 832 ft 118 kts 30°
2026-05-04 10:27 37.90895 23.90696 603 ft 113 kts 40°
2026-05-04 10:27 37.91504 23.91273 437 ft 105 kts 39°
2026-05-04 10:28 37.92058 23.91793 331 ft 96 kts 41°
2026-05-04 10:28 37.92543 23.92270 301 ft 53 kts 35°
2026-05-04 10:28 37.92734 23.92456 296 ft 17 kts 36°
2026-05-04 10:28 37.92875 23.92587 294 ft 36 kts 35°
2026-05-04 10:29 37.93118 23.92814 286 ft 50 kts 37°
2026-05-04 10:29 37.93397 23.93082 286 ft 47 kts 38°
2026-05-04 10:29 37.93582 23.93315 287 ft 31 kts 65°
2026-05-04 10:29 37.93616 23.93501 296 ft 13 kts 136°
2026-05-04 10:30 37.93541 23.93493 299 ft 12 kts 218°
2026-05-04 10:30 37.93462 23.93422 295 ft 13 kts 197°
2026-05-04 10:30 37.93426 23.93445 296 ft 6 kts 128°
2026-05-04 10:30 37.93384 23.93519 298 ft 14 kts 127°
2026-05-04 10:31 37.93313 23.93638 298 ft 20 kts 128°
2026-05-04 10:31 37.93219 23.93793 297 ft 24 kts 128°
2026-05-04 10:32 37.92923 23.94594 300 ft 23 kts 37°
2026-05-04 10:33 37.93060 23.94721 300 ft 26 kts 37°
2026-05-04 10:33 37.93214 23.94867 296 ft 29 kts 38°
2026-05-04 10:33 37.93381 23.95027 297 ft 31 kts 38°
2026-05-04 10:33 37.93560 23.95195 295 ft 33 kts 38°
2026-05-04 10:34 37.93746 23.95372 293 ft 34 kts 40°
2026-05-04 10:34 37.93940 23.95557 295 ft 35 kts 36°
2026-05-04 10:34 37.94062 23.95651 294 ft 14 kts 352°
2026-05-04 10:34 37.94144 23.95536 297 ft 22 kts 309°
2026-05-04 10:35 37.94200 23.95399 297 ft 13 kts 245°
2026-05-04 10:35 37.94161 23.95359 300 ft 12 kts 219°
2026-05-04 10:35 37.94135 23.95333 297 ft 1 kts 217°
2026-05-04 10:35 37.94133 23.95332 297 ft 0 kts 217°